Waycross, GA

3:10 PM EST on February 14, 2016 (GMT -0500)
Waycross-Ware County

Weather History for KAYS - November, 2013

Change the Weather History Date:

Saturday, November 16, 2013

  Actual Average (KAMG) Record (KAMG)
Temperature  
Mean Temperature 69 °F 60 °F  
Max Temperature 78 °F 72 °F 87 °F (1958)
Min Temperature 60 °F 48 °F 24 °F (1963)
Degree Days  
Heating Degree Days 0 6  
Month to date heating degree days 80  
Since 1 July heating degree days 130  
Cooling Degree Days 4 1  
Month to date cooling degree days 28  
Year to date cooling degree days 2453  
Growing Degree Days 19 (Base 50)    
Moisture  
Dew Point 64 °F    
Average Humidity 88    
Maximum Humidity 100    
Minimum Humidity 61    
Precipitation  
Precipitation 0.00 in 0.08 in 0.99 in (1954)
Month to date precipitation 1.28  
Year to date precipitation 42.16  
Snow  
Snow 0.00 in 0.00 in 0.00 in ()
Month to date snowfall 0.0  
Since 1 July snowfall 0.0  
Since 1 September snowfall 0.0  
Snow Depth -    
Sea Level Pressure  
Sea Level Pressure 30.15 in    
Wind  
Wind Speed 3 mph (East)    
Max Wind Speed 8 mph    
Max Gust Speed -    
Visibility 6 miles    
Events      
T = Trace of Precipitation, MM = Missing Value Source: NWS Daily Summary

Daily Weather History Graph

Daily Weather History Graph

Search for Another Location

Airport or City:

Trip Planner

Search our weather history database for the weather conditions in past years. The results will help you decide how hot, cold, wet, or windy it might be!

Date:

Astronomy

Nov. 16, 2013 Rise Set
Actual Time 6:57 AM EST 5:30 PM EST
Civil Twilight 6:32 AM EST 5:56 PM EST
Nautical Twilight 6:02 AM EST 6:25 PM EST
Astronomical Twilight 5:34 AM EST 6:54 PM EST
Moon 5:02 PM EST (11/16) 5:56 AM EST (11/16)
Length of Visible Light 11h 24m
Length of Day
10h 32m
Waxing Gibbous, 99% of the Moon is Illuminated
Nov 16
Waxing Gibbous
Nov 17
Full
Nov 25
Last Quarter
Dec 2
New
Dec 9
First Quarter

Hourly Weather History & Observations

Time (EST) Temp. Dew Point Humidity Pressure Visibility Wind Dir Wind Speed Gust Speed Precip Events Conditions
12:15 AM 64.4 °F 62.6 °F 94% 30.15 in 0.2 mi ENE 3.5 mph - N/A   Overcast
12:35 AM 62.6 °F 62.6 °F 100% 30.15 in 0.5 mi ENE 3.5 mph - N/A   Overcast
12:55 AM 62.6 °F 62.6 °F 100% 30.15 in 0.2 mi ENE 3.5 mph - N/A   Overcast
1:15 AM 62.6 °F 62.6 °F 100% 30.15 in 0.2 mi Calm Calm - N/A   Overcast
1:35 AM 62.6 °F 62.6 °F 100% 30.14 in 0.2 mi NE 4.6 mph - N/A   Overcast
1:55 AM 62.6 °F 62.6 °F 100% 30.14 in 0.2 mi Calm Calm - N/A   Overcast
2:15 AM 62.6 °F 62.6 °F 100% 30.14 in 0.2 mi NE 3.5 mph - N/A   Overcast
2:35 AM 62.6 °F 62.6 °F 100% 30.14 in 0.2 mi Calm Calm - N/A   Overcast
2:55 AM 62.6 °F 62.6 °F 100% 30.14 in 0.2 mi ENE 3.5 mph - N/A   Overcast
3:15 AM 62.6 °F 62.6 °F 100% 30.14 in 0.2 mi Calm Calm - N/A   Overcast
3:35 AM 62.6 °F 62.6 °F 100% 30.14 in 0.2 mi Calm Calm - N/A   Overcast
3:55 AM 60.8 °F 60.8 °F 100% 30.15 in 0.2 mi Calm Calm - N/A   Overcast
4:15 AM 60.8 °F 60.8 °F 100% 30.15 in 0.2 mi Calm Calm - N/A   Overcast
4:35 AM 60.8 °F 60.8 °F 100% 30.15 in 0.2 mi Calm Calm - N/A   Overcast
4:55 AM 60.8 °F 60.8 °F 100% 30.15 in 0.2 mi Calm Calm - N/A   Overcast
5:15 AM 60.8 °F 60.8 °F 100% 30.16 in 0.2 mi Calm Calm - N/A   Overcast
5:35 AM 60.8 °F 60.8 °F 100% 30.16 in 0.2 mi Calm Calm - N/A   Overcast
5:55 AM 60.8 °F 60.8 °F 100% 30.16 in 0.2 mi Calm Calm - N/A   Overcast
6:15 AM 60.8 °F 60.8 °F 100% 30.16 in 0.2 mi Calm Calm - N/A   Overcast
6:35 AM 60.8 °F 60.8 °F 100% 30.17 in 0.2 mi NE 3.5 mph - N/A   Overcast
6:55 AM 60.8 °F 60.8 °F 100% 30.18 in 0.2 mi NE 3.5 mph - N/A   Overcast
7:15 AM 60.8 °F 60.8 °F 100% 30.18 in 0.2 mi ENE 4.6 mph - N/A   Overcast
7:35 AM 60.8 °F 60.8 °F 100% 30.18 in 0.2 mi ENE 3.5 mph - N/A   Overcast
7:55 AM 60.8 °F 60.8 °F 100% 30.18 in 0.2 mi ENE 3.5 mph - N/A   Overcast
8:15 AM 60.8 °F 60.8 °F 100% 30.19 in 0.2 mi East 3.5 mph - N/A   Overcast
8:35 AM 60.8 °F 60.8 °F 100% 30.19 in 0.2 mi East 4.6 mph - N/A   Overcast
8:55 AM 62.6 °F 62.6 °F 100% 30.19 in 0.2 mi ENE 5.8 mph - N/A   Overcast
9:15 AM 62.6 °F 62.6 °F 100% 30.20 in 1.0 mi ENE 3.5 mph - N/A   Overcast
9:35 AM 62.6 °F 62.6 °F 100% 30.20 in 4.0 mi ENE 3.5 mph - N/A   Overcast
9:55 AM 64.4 °F 64.4 °F 100% 30.19 in 10.0 mi East 5.8 mph - N/A   Scattered Clouds
10:15 AM 66.2 °F 66.2 °F 100% 30.19 in 10.0 mi ESE 6.9 mph - N/A   Clear
10:35 AM 69.8 °F 66.2 °F 88% 30.19 in 10.0 mi ESE 4.6 mph - N/A   Clear
10:55 AM 71.6 °F 66.2 °F 83% 30.19 in 10.0 mi ESE 6.9 mph - N/A   Clear
11:15 AM 73.4 °F 66.2 °F 78% 30.19 in 10.0 mi ESE 6.9 mph - N/A   Clear
11:35 AM 73.4 °F 64.4 °F 73% 30.19 in 10.0 mi East 6.9 mph - N/A   Mostly Cloudy
11:55 AM 73.4 °F 64.4 °F 73% 30.17 in 10.0 mi ESE 5.8 mph - N/A   Mostly Cloudy
12:15 PM 75.2 °F 64.4 °F 69% 30.17 in 10.0 mi ENE 5.8 mph - N/A   Overcast
12:35 PM 75.2 °F 64.4 °F 69% 30.15 in 10.0 mi East 8.1 mph - N/A   Overcast
12:55 PM 77.0 °F 64.4 °F 65% 30.15 in 10.0 mi East 8.1 mph - N/A   Overcast
1:15 PM 77.0 °F 64.4 °F 65% 30.14 in 10.0 mi ESE 8.1 mph - N/A   Mostly Cloudy
1:35 PM 78.8 °F 64.4 °F 61% 30.14 in 10.0 mi East 8.1 mph - N/A   Mostly Cloudy
1:55 PM 77.0 °F 64.4 °F 65% 30.13 in 10.0 mi East 6.9 mph - N/A   Overcast
2:15 PM 78.8 °F 64.4 °F 61% 30.12 in 10.0 mi East 6.9 mph - N/A   Overcast
2:35 PM 78.8 °F 64.4 °F 61% 30.12 in 10.0 mi SE 8.1 mph - N/A   Overcast
2:55 PM 77.0 °F 64.4 °F 65% 30.11 in 10.0 mi ESE 5.8 mph - N/A   Overcast
3:15 PM 75.2 °F 64.4 °F 69% 30.11 in 10.0 mi East 6.9 mph - N/A   Overcast
3:35 PM 75.2 °F 64.4 °F 69% 30.11 in 10.0 mi East 6.9 mph - N/A   Overcast
3:55 PM 75.2 °F 64.4 °F 69% 30.11 in 10.0 mi ENE 6.9 mph - N/A   Overcast
4:15 PM 75.2 °F 66.2 °F 73% 30.11 in 10.0 mi East 4.6 mph - N/A   Overcast
4:35 PM 75.2 °F 66.2 °F 73% 30.11 in 10.0 mi ESE 4.6 mph - N/A   Overcast
4:55 PM 75.2 °F 64.4 °F 69% 30.11 in 10.0 mi East 4.6 mph - N/A   Overcast
5:15 PM 75.2 °F 66.2 °F 73% 30.11 in 10.0 mi ESE 5.8 mph - N/A   Overcast
5:35 PM 73.4 °F 66.2 °F 78% 30.11 in 10.0 mi ESE 5.8 mph - N/A   Overcast
5:55 PM 73.4 °F 64.4 °F 73% 30.11 in 10.0 mi ESE 5.8 mph - N/A   Overcast
6:15 PM 73.4 °F 66.2 °F 78% 30.12 in 10.0 mi ESE 4.6 mph - N/A   Overcast
6:35 PM 71.6 °F 64.4 °F 78% 30.13 in 10.0 mi ESE 6.9 mph - N/A   Overcast
6:55 PM 71.6 °F 64.4 °F 78% 30.13 in 10.0 mi SE 3.5 mph - N/A   Overcast
7:15 PM 71.6 °F 64.4 °F 78% 30.14 in 10.0 mi East 4.6 mph - N/A   Overcast
7:35 PM 71.6 °F 66.2 °F 83% 30.14 in 10.0 mi East 3.5 mph - N/A   Overcast
7:55 PM 71.6 °F 66.2 °F 83% 30.14 in 10.0 mi Calm Calm - N/A   Overcast
8:15 PM 69.8 °F 64.4 °F 83% 30.14 in 10.0 mi Calm Calm - N/A   Overcast
8:35 PM 69.8 °F 64.4 °F 83% 30.14 in 10.0 mi East 3.5 mph - N/A   Overcast
8:55 PM 69.8 °F 64.4 °F 83% 30.14 in 10.0 mi East 3.5 mph - N/A   Mostly Cloudy
9:15 PM 68.0 °F 64.4 °F 88% 30.15 in 10.0 mi Calm Calm - N/A   Mostly Cloudy
9:35 PM 66.2 °F 64.4 °F 94% 30.15 in 10.0 mi East 3.5 mph - N/A   Mostly Cloudy
9:55 PM 66.2 °F 64.4 °F 94% 30.15 in 10.0 mi ENE 3.5 mph - N/A   Scattered Clouds
10:15 PM 66.2 °F 66.2 °F 100% 30.15 in 10.0 mi ENE 4.6 mph - N/A   Mostly Cloudy
10:35 PM 66.2 °F 66.2 °F 100% 30.15 in 10.0 mi Calm Calm - N/A   Overcast
10:55 PM 68.0 °F 66.2 °F 94% 30.16 in 10.0 mi Calm Calm - N/A   Overcast
11:15 PM 68.0 °F 66.2 °F 94% 30.16 in 10.0 mi Calm Calm - N/A   Overcast
11:35 PM 66.2 °F 66.2 °F 100% 30.15 in 10.0 mi Calm Calm - N/A   Overcast
11:55 PM 66.2 °F 66.2 °F 100% 30.15 in 10.0 mi Calm Calm - N/A   Overcast